Location: *
(2.5500°S, 65.9667°W)
Time: 12:46:37
(UTC+00:00)

In-Cosmos 22 Rocket - Pass Details

Date: 26 October 2021
Orbit: 790 x 888 km, 81.2° (Epoch: 28 November)

Event Time Altitude Azimuth Distance (km) Brightness Sun altitude
Rises 23:19:34 0° 359° (N) 3,285 7.1 -16.9°
Reaches altitude 10° 23:21:55 10° 1° (N) 2,367 6.4 -17.4°
Maximum altitude 23:27:14 72° 85° (E) 854 4.0 -18.7°
Drops below altitude 10° 23:32:43 10° 169° (S) 2,437 6.6 -20.1°
Sets 23:35:10 0° 171° (S) 3,388 7.4 -20.7°
